Regional Weather Roundup
Issued by NWS State College, PA

Home | Current Version | Previous Version | Graphics & Text | Print | Product List | Glossary On
Versions: 1 2 3 4 5 6 7 8 9 10 11 12 13 14 15 16 17 18 19 20 21 22 23 24 25 26 27 28 29 30 31 32 33 34 35 36 37 38 39 40 41 42 43 44 45 46 47 48 49 50
000
ASUS41 KCTP 250210
RWRCTP

REGIONAL WEATHER ROUNDUP
NATIONAL WEATHER SERVICE STATE COLLEGE PA
900 PM EST FRI NOV 24 2017

Note: "fair" indicates few or no clouds below 12,000 feet with no
significant weather and/or obstructions to visibility.

* = STATION THAT DOES NOT REPORT PRECIPITATION /E.G. RAIN...SNOW...ETC/
    THUNDER OR FOG.

PAZ002>004-007>009-013>016-020>023-029>032-250300-
WESTERN PENNSYLVANIA

CITY           SKY/WX    TMP DP  RH WIND       PRES   REMARKS
ERIE           CLOUDY    49  24  37 S18G25    29.70F
MEADVILLE      PTCLDY    44  23  43 S7        29.75F
FRANKLIN*      PTCLDY    42  22  44 S12       29.78F
NEW CASTLE     NOT AVBL
BEAVER COUNTY  NOT AVBL
BUTLER*        CLEAR     44  20  38 S6        29.81S
PITTSBURGH INT CLEAR     42  21  43 S6        29.80F
PITTSBURGH     CLEAR     46  17  31 S9        29.80F
INDIANA*       CLEAR     34  25  69 CALM      29.87R
LATROBE        CLEAR     36  19  51 CALM      29.84S
WASHINGTON CO* CLEAR     42  20  41 SW5       29.84F
$$

PAZ004>006-010>012-017>019-024>028-033>037-041-042-045-046-049>053-250300-
CENTRAL PENNSYLVANIA

CITY           SKY/WX    TMP DP  RH WIND       PRES   REMARKS
BRADFORD       PTCLDY    44  20  38 S9        29.77F
DUBOIS         CLEAR     45  16  31 VRB6      29.80S
CLEARFIELD     CLEAR     36  23  59 N3        29.84S
JOHNSTOWN      CLEAR     44  20  38 S9        29.83S
ALTOONA        CLEAR     43  23  45 S5        29.86F
STATE COLLEGE  CLEAR     41  23  48 CALM      29.87R
WILLIAMSPORT   CLEAR     44  25  47 VRB6      29.88R
SELINSGROVE    CLEAR     34  26  72 CALM      29.91R
FT INDIANTOWN  CLEAR     33  27  76 CALM      29.93F
CAPITAL CITY   CLEAR     43  27  53 SE7       29.93S
HARRISBURG     CLEAR     39  29  67 E3        29.93S
YORK           CLEAR     41  30  65 CALM      29.93F
$$

PAZ038>040-043-044-047-048-054-055-060>062-067>071-250300-
EASTERN PENNSYLVANIA

CITY           SKY/WX    TMP DP  RH WIND       PRES   REMARKS
SCRANTON       CLEAR     42  22  44 SW5       29.89F
MOUNT POCONO   CLEAR     36  19  50 SW6       29.89S
ALLENTOWN      CLEAR     37  23  56 CALM      29.95S
QUAKERTOWN*    CLEAR     36  25  64 SW3       29.96S
READING        CLEAR     40  26  57 CALM      29.94S
LANCASTER      CLEAR     38  26  62 E5        29.94F
COATESVILLE    CLEAR     37  28  70 CALM      29.97S
POTTSTOWN      CLEAR     40  29  64 S3        29.98S
BLUE BELL      CLEAR     36  28  75 S3        29.98F
DOYLESTOWN     CLEAR     41  27  57 S5        29.95F
WILLOW GROVE   NOT AVBL
NORTH PHILA    CLEAR     44  28  53 CALM      30.00S
PHILADELPHIA   CLEAR     43  30  60 S10       29.99S
$$



USA.gov is the U.S. government's official web portal to all federal, state and local government web resources and services.